User: anonymous   Login
Location: Brno
(49.2000°N, 16.6330°E)
Time: 07:21:06
(UTC+02:00)
Language:

RESURS DK-1 - Orbit

View from above orbital plane
View from above orbital plane
View from above satellite
View from above satellite

Ground track
Ground track

The orbit data is extracted from the following two-line orbital elements,

1 29228U 06021A   16269.86706933  .00000299  00000-0  30150-4 0  9991
2 29228  69.9359  50.4842 0004390 346.4098  13.6944 15.01991250568413
Epoch (UTC): 25 September 2016 20:48:34
Eccentricity: 0.0004390
inclination: 69.9359°
perigee height: 558 km
apogee height: 564 km
right ascension of ascending node: 50.4842°
argument of perigee: 346.4098°
revolutions per day: 15.01991250
mean anomaly at epoch: 13.6944°
orbit number at epoch: 56841

The dashed part of the orbit path shows where the satellite is in the earth's shadow,  

DLR